Regional Weather Roundup
Issued by NWS

Home | Current Version | Previous Version | Graphics & Text | Print | Product List | Glossary On
Versions: 1 2 3 4 5 6 7 8 9 10 11 12 13 14 15 16 17 18 19 20 21 22 23 24 25 26 27
000
ASUS45 KPSR 251310
RWRAZ

ARIZONA HOURLY REGIONAL WEATHER ROUNDUP
NATIONAL WEATHER SERVICE PHOENIX AZ
600 AM MST SAT FEB 25 2017

NOTE: FAIR INDICATES FEW OR NO CLOUDS BELOW 12,000 FEET WITH NO
SIGNIFICANT WEATHER AND/OR OBSTRUCTIONS TO VISIBILITY.

AZZ001>003-036-251400-
NORTHWEST ARIZONA

CITY           SKY/WX    TMP DP  RH WIND       PRES   REMARKS
BULLHEAD CITY  CLEAR     39  28  65 CALM      30.12S
KINGMAN        CLEAR     28   8  43 S7        30.08S WCI  21
$$

AZZ004>008-015-016-018-251400-
NORTH CENTRAL ARIZONA

CITY           SKY/WX    TMP DP  RH WIND       PRES   REMARKS
GRAND CANYON   CLEAR     11   8  88 CALM      30.06R
WILLIAMS       CLEAR     16  10  79 S7        30.05S WCI   6
PRESCOTT       CLEAR     22  14  71 SW3       30.08F
FLAGSTAFF      CLEAR     13   9  84 CALM      30.05S
PAYSON         CLEAR     25  19  80 CALM      30.12S
PAGE           CLEAR     28   7  41 CALM      30.08S
$$

AZZ009>014-017-251400-
NORTHEAST ARIZONA

CITY           SKY/WX    TMP DP  RH WIND       PRES   REMARKS
WINSLOW        CLEAR     20  12  71 CALM      30.10R
SAINT JOHNS    CLEAR     18  11  74 S5        30.08S WCI  11
WINDOW ROCK    CLEAR     13   7  77 S3        30.06S
SHOW LOW       LGT RAIN  23  10  58 S12       30.08S WCI  12
$$

AZZ023-251400-
GREATER PHOENIX AREA

CITY           SKY/WX    TMP DP  RH WIND       PRES   REMARKS
PHOENIX        CLEAR     44  32  62 E6        30.11R
BUCKEYE        CLEAR     37  36  93 N3        30.12S
LUKE AFB       CLEAR     37  30  75 N3        30.11R
DEER VALLEY    CLEAR     39  30  70 CALM      30.10S
SCOTTSDALE     CLEAR     40  31  70 CALM      30.12R
MESA-GATEWAY   CLEAR     37  30  75 SE6       30.12S WCI  33
CHANDLER       CLEAR     37  30  75 NE8       30.12  WCI  31
$$

AZZ027-028-251400-
SOUTHWEST MARICOPA COUNTY AND PINAL COUNTY

CITY           SKY/WX    TMP DP  RH WIND       PRES   REMARKS
CASA GRANDE    NOT AVBL
$$

AZZ503-504-507>509-251400-
SOUTHEAST ARIZONA

CITY           SKY/WX    TMP DP  RH WIND       PRES   REMARKS
TUCSON         CLEAR     37  19  48 SE7       30.12S WCI  32
DAVIS-MONTHAN  CLEAR     37  17  45 SE10      30.11S WCI  29
RYAN FIELD     CLEAR     34  19  55 SE7       30.13  WCI  28
NOGALES        CLEAR     28  15  58 CALM      30.11R
SIERRA VISTA   CLEAR     32  15  49 S3        30.11S
DOUGLAS        CLEAR     24  14  65 CALM      30.12S
SAFFORD        CLEAR     28  14  55 S5        30.12R WCI  23
$$

AZZ020-021-025-026-031-251400-
SOUTHWEST ARIZONA

CITY           SKY/WX    TMP DP  RH WIND       PRES   REMARKS
YUMA           CLEAR     48  31  51 NE6       30.09F
$$

CAZ031-033-041-043-047-048-061-251400-
SOUTHERN CALIFORNIA

CITY           SKY/WX    TMP DP  RH WIND       PRES   REMARKS
DOWNTOWN L.A.  CLEAR     44  36  73 CALM      30.12S
L.A. AIRPORT   CLEAR     44  36  73 NE5       30.13R
SAN DIEGO      CLEAR     48  38  68 E5        30.15R
BURBANK        CLEAR     39  31  72 CALM      30.10F
ONTARIO        CLEAR     40  33  76 CALM      30.10F
RIVERSIDE      CLEAR     40  36  86 NE3       30.11F
PALM SPRINGS   CLEAR     45  37  73 NW5       30.11S
IMPERIAL       CLEAR     41  30  65 W6        30.10R
BLYTHE         CLEAR     40  38  93 N5        30.11S
NEEDLES        CLEAR     42  30  62 CALM      30.11S
$$

NVZ020-UTZ003-251400-
SOUTHERN NEVADA-UTAH

CITY           SKY/WX    TMP DP  RH WIND       PRES   REMARKS
LAS VEGAS      PTCLDY    38  21  50 CALM      30.06S
SALT LAKE CITY MOCLDY    23  14  68 SE10      30.09F WCI  12
$$

NMZ009-TXZ055-251400-
NEW MEXICO-WEST TEXAS

CITY           SKY/WX    TMP DP  RH WIND       PRES   REMARKS
ALBUQUERQUE    CLEAR     27   4  37 NE3       30.09R
EL PASO        CLEAR     42   6  22 MISG      30.08R
$$


........................KEY........................
SKY/WX - SKY CONDITION/WEATHER
TMP    - TEMPERATURE IN FAHRENHEIT
DP     - DEW POINT IN FAHRENHEIT
RH     - RELATIVE HUMIDITY IN PERCENT
WIND   - DIRECTION AND SPEED IN MILES PER HOUR (MPH)
VRB    - VARIABLE WIND DIRECTION
PRES   - MEAN SEA LEVEL PRESSURE IN INCHES OF MERCURY
         F - FALLING PRESSURE   R - RISING PRESSURE
         S - STEADY PRESSURE
VSB    - VISIBILITY IN MILES
HX     - HEAT INDEX IN FAHRENHEIT
WCI    - WIND CHILL INDEX IN FAHRENHEIT
TC     - TEMPERATURE IN CELSIUS WHICH IS ALSO KNOWN AS
         TEMPERATURE IN CENTIGRADE
AFB    - AIR FORCE BASE
         LUKE AFB IS LUKE AIR FORCE BASE
         DAVIS-MONTHAN IS DAVIS-MONTHAN AIR FORCE BASE
NAS    - NAVAL AIR STATION
         EL CENTRO NAS IS EL CENTRO NAVAL AIR STATION
N/A    - NOT AVAILABLE





USA.gov is the U.S. government's official web portal to all federal, state and local government web resources and services.